Time,TemperatureF,DewpointF,PressureIn,WindDirection,WindDirectionDegrees,WindSpeedMPH,WindSpeedGustMPH,Humidity,HourlyPrecipIn,Conditions,Clouds,dailyrainin,SoftwareType,DateUTC
2013-01-24 00:02:00,41.0,26.0,-100.00,NW,326,1.0,6.0,56,-99.99,,,-99.99,,2013-01-24 08:02:00,
2013-01-24 00:12:00,41.0,26.0,-100.00,NW,326,1.0,6.0,56,-99.99,,,-99.99,,2013-01-24 08:12:00,
2013-01-24 00:22:00,40.0,27.0,-100.00,NE,38,1.0,3.0,59,-99.99,,,-99.99,,2013-01-24 08:22:00,
2013-01-24 00:32:00,40.0,27.0,-100.00,NE,38,1.0,3.0,59,-99.99,,,-99.99,,2013-01-24 08:32:00,
2013-01-24 00:42:00,40.0,27.0,-100.00,NE,38,1.0,3.0,59,-99.99,,,-99.99,,2013-01-24 08:42:00,
2013-01-24 01:02:00,41.0,28.0,-100.00,SSW,209,0.0,2.0,60,-99.99,,,-99.99,,2013-01-24 09:02:00,
2013-01-24 01:12:00,41.0,28.0,-100.00,SSW,209,0.0,2.0,60,-99.99,,,-99.99,,2013-01-24 09:12:00,
2013-01-24 01:22:00,40.0,28.0,-100.00,North,11,1.0,2.0,61,-99.99,,,-99.99,,2013-01-24 09:22:00,
2013-01-24 01:33:00,40.0,28.0,-100.00,North,11,1.0,2.0,61,-99.99,,,-99.99,,2013-01-24 09:33:00,
2013-01-24 01:42:00,40.0,28.0,-100.00,NNE,14,0.0,1.0,61,-99.99,,,-99.99,,2013-01-24 09:42:00,
2013-01-24 01:53:00,40.0,28.0,-100.00,NNE,14,0.0,1.0,61,-99.99,,,-99.99,,2013-01-24 09:53:00,
2013-01-24 02:02:00,41.0,29.0,-100.00,North,0,2.0,6.0,64,-99.99,,,-99.99,,2013-01-24 10:02:00,
2013-01-24 02:12:00,41.0,29.0,-100.00,North,0,2.0,6.0,64,-99.99,,,-99.99,,2013-01-24 10:12:00,
2013-01-24 02:22:00,40.0,29.0,-100.00,North,7,6.0,10.0,66,-99.99,,,-99.99,,2013-01-24 10:22:00,
2013-01-24 02:33:00,40.0,29.0,-100.00,North,7,6.0,10.0,66,-99.99,,,-99.99,,2013-01-24 10:33:00,
2013-01-24 02:42:00,39.0,30.0,-100.00,North,356,11.0,16.0,71,-99.99,,,-99.99,,2013-01-24 10:42:00,
2013-01-24 02:53:00,39.0,30.0,-100.00,North,356,11.0,16.0,71,-99.99,,,-99.99,,2013-01-24 10:53:00,
2013-01-24 03:02:00,39.0,30.0,-100.00,North,356,11.0,16.0,71,-99.99,,,-99.99,,2013-01-24 11:02:00,
2013-01-24 03:43:00,38.0,33.0,-100.00,North,349,6.0,8.0,80,-99.99,,,-99.99,,2013-01-24 11:43:00,
2013-01-24 03:53:00,38.0,33.0,-100.00,North,349,6.0,8.0,80,-99.99,,,-99.99,,2013-01-24 11:53:00,
2013-01-24 04:03:00,39.0,32.0,-100.00,WNW,284,0.0,2.0,78,-99.99,,,-99.99,,2013-01-24 12:03:00,
2013-01-24 04:12:00,39.0,32.0,-100.00,WNW,284,0.0,2.0,78,-99.99,,,-99.99,,2013-01-24 12:12:00,
2013-01-24 04:22:00,38.0,33.0,-100.00,East,82,0.0,1.0,81,-99.99,,,-99.99,,2013-01-24 12:22:00,
2013-01-24 04:33:00,38.0,33.0,-100.00,East,82,0.0,1.0,81,-99.99,,,-99.99,,2013-01-24 12:33:00,
2013-01-24 04:42:00,38.0,33.0,-100.00,ENE,58,0.0,3.0,83,-99.99,,,-99.99,,2013-01-24 12:42:00,
2013-01-24 04:53:00,38.0,33.0,-100.00,ENE,58,0.0,3.0,83,-99.99,,,-99.99,,2013-01-24 12:53:00,
2013-01-24 05:02:00,38.0,33.0,-100.00,ENE,58,0.0,3.0,83,-99.99,,,-99.99,,2013-01-24 13:02:00,
2013-01-24 05:22:00,38.0,33.0,-100.00,North,11,2.0,6.0,83,-99.99,,,-99.99,,2013-01-24 13:22:00,
2013-01-24 05:33:00,38.0,33.0,-100.00,North,11,2.0,6.0,83,-99.99,,,-99.99,,2013-01-24 13:33:00,
2013-01-24 05:42:00,38.0,33.0,-100.00,NNE,18,4.0,7.0,83,-99.99,,,-99.99,,2013-01-24 13:42:00,
2013-01-24 05:53:00,38.0,33.0,-100.00,NNE,18,4.0,7.0,83,-99.99,,,-99.99,,2013-01-24 13:53:00,
2013-01-24 06:02:00,38.0,34.0,-100.00,West,264,1.0,4.0,85,-99.99,,,-99.99,,2013-01-24 14:02:00,
2013-01-24 06:12:00,38.0,34.0,-100.00,West,264,1.0,4.0,85,-99.99,,,-99.99,,2013-01-24 14:12:00,
2013-01-24 06:22:00,38.0,34.0,-100.00,North,350,1.0,3.0,87,-99.99,,,-99.99,,2013-01-24 14:22:00,
2013-01-24 06:33:00,38.0,34.0,-100.00,North,350,1.0,3.0,87,-99.99,,,-99.99,,2013-01-24 14:33:00,
2013-01-24 06:43:00,37.0,34.0,-100.00,North,11,1.0,2.0,88,-99.99,,,-99.99,,2013-01-24 14:43:00,
2013-01-24 06:54:00,37.0,34.0,-100.00,North,11,1.0,2.0,88,-99.99,,,-99.99,,2013-01-24 14:54:00,
2013-01-24 07:03:00,37.0,34.0,-100.00,North,11,1.0,2.0,88,-99.99,,,-99.99,,2013-01-24 15:03:00,
2013-01-24 07:43:00,36.0,34.0,-100.00,SW,233,1.0,2.0,92,-99.99,,,-99.99,,2013-01-24 15:43:00,
2013-01-24 07:53:00,36.0,34.0,-100.00,SW,233,1.0,2.0,92,-99.99,,,-99.99,,2013-01-24 15:53:00,
2013-01-24 08:03:00,36.0,34.0,-100.00,SSW,203,1.0,2.0,92,-99.99,,,-99.99,,2013-01-24 16:03:00,
2013-01-24 08:12:00,36.0,34.0,-100.00,SSW,203,1.0,2.0,92,-99.99,,,-99.99,,2013-01-24 16:12:00,
2013-01-24 08:22:00,35.0,33.0,-100.00,SW,222,2.0,4.0,93,-99.99,,,-99.99,,2013-01-24 16:22:00,
2013-01-24 08:33:00,35.0,33.0,-100.00,SW,222,2.0,4.0,93,-99.99,,,-99.99,,2013-01-24 16:33:00,
2013-01-24 08:42:00,35.0,33.0,-100.00,SW,222,2.0,4.0,93,-99.99,,,-99.99,,2013-01-24 16:42:00,
2013-01-24 09:02:00,37.0,35.0,-100.00,WSW,240,0.0,1.0,93,-99.99,,,-99.99,,2013-01-24 17:02:00,
2013-01-24 09:12:00,37.0,35.0,-100.00,WSW,240,0.0,1.0,93,-99.99,,,-99.99,,2013-01-24 17:12:00,
2013-01-24 09:21:00,37.0,35.0,-100.00,WSW,240,0.0,1.0,93,-99.99,,,-99.99,,2013-01-24 17:21:00,
2013-01-24 10:02:00,37.0,34.0,-100.00,SE,140,1.0,3.0,91,-99.99,,,-99.99,,2013-01-24 18:02:00,
2013-01-24 10:12:00,37.0,34.0,-100.00,SE,140,1.0,3.0,91,-99.99,,,-99.99,,2013-01-24 18:12:00,
2013-01-24 10:22:00,37.0,34.0,-100.00,SE,140,1.0,3.0,91,-99.99,,,-99.99,,2013-01-24 18:22:00,
2013-01-24 10:43:00,38.0,34.0,-100.00,SSW,203,1.0,3.0,85,-99.99,,,-99.99,,2013-01-24 18:43:00,
2013-01-24 10:53:00,38.0,34.0,-100.00,SSW,203,1.0,3.0,85,-99.99,,,-99.99,,2013-01-24 18:53:00,
2013-01-24 11:01:00,38.0,34.0,-100.00,SSW,203,1.0,3.0,85,-99.99,,,-99.99,,2013-01-24 19:01:00,
2013-01-24 11:22:00,40.0,33.0,-100.00,East,80,2.0,5.0,76,-99.99,,,-99.99,,2013-01-24 19:22:00,
2013-01-24 11:32:00,40.0,33.0,-100.00,East,80,2.0,5.0,76,-99.99,,,-99.99,,2013-01-24 19:32:00,
2013-01-24 11:42:00,39.0,33.0,-100.00,SE,143,1.0,3.0,77,-99.99,,,-99.99,,2013-01-24 19:42:00,
2013-01-24 11:52:00,39.0,33.0,-100.00,SE,143,1.0,3.0,77,-99.99,,,-99.99,,2013-01-24 19:52:00,
2013-01-24 12:02:00,39.0,33.0,-100.00,SE,143,1.0,3.0,77,-99.99,,,-99.99,,2013-01-24 20:02:00,
2013-01-24 12:22:00,39.0,33.0,-100.00,ESE,117,1.0,3.0,78,-99.99,,,-99.99,,2013-01-24 20:22:00,
2013-01-24 12:32:00,39.0,33.0,-100.00,ESE,117,1.0,3.0,78,-99.99,,,-99.99,,2013-01-24 20:32:00,
2013-01-24 12:42:00,38.0,32.0,-100.00,SSW,203,2.0,4.0,80,-99.99,,,-99.99,,2013-01-24 20:42:00,
2013-01-24 12:52:00,38.0,32.0,-100.00,SSW,203,2.0,4.0,80,-99.99,,,-99.99,,2013-01-24 20:52:00,
2013-01-24 13:02:00,38.0,32.0,-100.00,SSW,203,2.0,4.0,80,-99.99,,,-99.99,,2013-01-24 21:02:00,
2013-01-24 13:43:00,39.0,34.0,-100.00,ENE,75,1.0,3.0,80,-99.99,,,-99.99,,2013-01-24 21:43:00,
2013-01-24 13:53:00,39.0,34.0,-100.00,ENE,75,1.0,3.0,80,-99.99,,,-99.99,,2013-01-24 21:53:00,
2013-01-24 14:02:00,39.0,33.0,-100.00,ESE,103,0.0,2.0,81,-99.99,,,-99.99,,2013-01-24 22:02:00,
2013-01-24 14:12:00,39.0,33.0,-100.00,ESE,103,0.0,2.0,81,-99.99,,,-99.99,,2013-01-24 22:12:00,
2013-01-24 14:22:00,39.0,34.0,-100.00,ENE,75,0.0,2.0,83,-99.99,,,-99.99,,2013-01-24 22:22:00,
2013-01-24 14:32:00,39.0,34.0,-100.00,ENE,75,0.0,2.0,83,-99.99,,,-99.99,,2013-01-24 22:32:00,
2013-01-24 14:42:00,38.0,34.0,-100.00,SE,126,0.0,1.0,83,-99.99,,,-99.99,,2013-01-24 22:42:00,
2013-01-24 14:53:00,38.0,34.0,-100.00,SE,126,0.0,1.0,83,-99.99,,,-99.99,,2013-01-24 22:53:00,
2013-01-24 15:02:00,38.0,34.0,-100.00,SE,124,0.0,2.0,87,-99.99,,,-99.99,,2013-01-24 23:02:00,
2013-01-24 15:12:00,38.0,34.0,-100.00,SE,124,0.0,2.0,87,-99.99,,,-99.99,,2013-01-24 23:12:00,
2013-01-24 15:21:00,38.0,34.0,-100.00,SSE,167,0.0,1.0,87,-99.99,,,-99.99,,2013-01-24 23:21:00,
2013-01-24 15:32:00,38.0,34.0,-100.00,SSE,167,0.0,1.0,87,-99.99,,,-99.99,,2013-01-24 23:32:00,
2013-01-24 15:42:00,37.0,34.0,-100.00,SW,216,0.0,2.0,90,-99.99,,,-99.99,,2013-01-24 23:42:00,
2013-01-24 15:52:00,37.0,34.0,-100.00,SW,216,0.0,2.0,90,-99.99,,,-99.99,,2013-01-24 23:52:00,
2013-01-24 16:02:00,37.0,35.0,-100.00,North,11,0.0,1.0,92,-99.99,,,-99.99,,2013-01-25 00:02:00,
2013-01-24 16:12:00,37.0,35.0,-100.00,North,11,0.0,1.0,92,-99.99,,,-99.99,,2013-01-25 00:12:00,
2013-01-24 16:22:00,37.0,35.0,-100.00,East,89,0.0,2.0,93,-99.99,,,-99.99,,2013-01-25 00:22:00,
2013-01-24 16:32:00,37.0,35.0,-100.00,East,89,0.0,2.0,93,-99.99,,,-99.99,,2013-01-25 00:32:00,
2013-01-24 16:41:00,37.0,35.0,-100.00,SSW,208,0.0,0.0,94,-99.99,,,-99.99,,2013-01-25 00:41:00,
2013-01-24 16:52:00,37.0,35.0,-100.00,SSW,208,0.0,0.0,94,-99.99,,,-99.99,,2013-01-25 00:52:00,
2013-01-24 17:01:00,37.0,35.0,-100.00,SSW,205,1.0,3.0,94,-99.99,,,-99.99,,2013-01-25 01:01:00,
2013-01-24 17:12:00,37.0,35.0,-100.00,SSW,205,1.0,3.0,94,-99.99,,,-99.99,,2013-01-25 01:12:00,
2013-01-24 17:21:00,36.0,35.0,-100.00,SSW,203,0.0,2.0,95,-99.99,,,-99.99,,2013-01-25 01:21:00,
2013-01-24 17:32:00,36.0,35.0,-100.00,SSW,203,0.0,2.0,95,-99.99,,,-99.99,,2013-01-25 01:32:00,
2013-01-24 17:42:00,36.0,35.0,-100.00,SSW,203,0.0,2.0,95,-99.99,,,-99.99,,2013-01-25 01:42:00,
2013-01-24 18:02:00,35.0,34.0,-100.00,ESE,113,0.0,2.0,95,-99.99,,,-99.99,,2013-01-25 02:02:00,
2013-01-24 18:11:00,35.0,34.0,-100.00,ESE,113,0.0,2.0,95,-99.99,,,-99.99,,2013-01-25 02:11:00,
2013-01-24 18:22:00,35.0,34.0,-100.00,SSW,206,0.0,0.0,96,-99.99,,,-99.99,,2013-01-25 02:22:00,
2013-01-24 18:32:00,35.0,34.0,-100.00,SSW,206,0.0,0.0,96,-99.99,,,-99.99,,2013-01-25 02:32:00,
2013-01-24 18:42:00,35.0,34.0,-100.00,WSW,239,0.0,2.0,96,-99.99,,,-99.99,,2013-01-25 02:42:00,
2013-01-24 18:52:00,35.0,34.0,-100.00,WSW,239,0.0,2.0,96,-99.99,,,-99.99,,2013-01-25 02:52:00,
2013-01-24 19:02:00,36.0,35.0,-100.00,WSW,251,0.0,2.0,96,-99.99,,,-99.99,,2013-01-25 03:02:00,
2013-01-24 19:12:00,36.0,35.0,-100.00,WSW,251,0.0,2.0,96,-99.99,,,-99.99,,2013-01-25 03:12:00,
2013-01-24 19:22:00,36.0,35.0,-100.00,SSW,208,0.0,1.0,96,-99.99,,,-99.99,,2013-01-25 03:22:00,
2013-01-24 19:32:00,36.0,35.0,-100.00,SSW,208,0.0,1.0,96,-99.99,,,-99.99,,2013-01-25 03:32:00,
2013-01-24 19:41:00,36.0,35.0,-100.00,WSW,241,1.0,2.0,96,-99.99,,,-99.99,,2013-01-25 03:41:00,
2013-01-24 19:52:00,36.0,35.0,-100.00,WSW,241,1.0,2.0,96,-99.99,,,-99.99,,2013-01-25 03:52:00,
2013-01-24 20:02:00,36.0,35.0,-100.00,WSW,241,1.0,2.0,96,-99.99,,,-99.99,,2013-01-25 04:02:00,
2013-01-24 20:41:00,36.0,35.0,-100.00,NE,38,0.0,2.0,96,-99.99,,,-99.99,,2013-01-25 04:41:00,
2013-01-24 21:22:00,36.0,35.0,-100.00,West,260,2.0,3.0,96,-99.99,,,-99.99,,2013-01-25 05:22:00,
2013-01-24 21:32:00,36.0,35.0,-100.00,West,260,2.0,3.0,96,-99.99,,,-99.99,,2013-01-25 05:32:00,
2013-01-24 21:43:00,36.0,35.0,-100.00,West,267,1.0,2.0,96,-99.99,,,-99.99,,2013-01-25 05:43:00,
2013-01-24 21:52:00,36.0,35.0,-100.00,West,267,1.0,2.0,96,-99.99,,,-99.99,,2013-01-25 05:52:00,
2013-01-24 22:02:00,35.0,34.0,-100.00,NE,52,0.0,2.0,96,-99.99,,,-99.99,,2013-01-25 06:02:00,
2013-01-24 22:11:00,35.0,34.0,-100.00,NE,52,0.0,2.0,96,-99.99,,,-99.99,,2013-01-25 06:11:00,
2013-01-24 22:21:00,35.0,34.0,-100.00,NE,52,0.0,2.0,96,-99.99,,,-99.99,,2013-01-25 06:21:00,
2013-01-24 22:42:00,36.0,35.0,-100.00,NE,37,0.0,1.0,96,-99.99,,,-99.99,,2013-01-25 06:42:00,
2013-01-24 22:52:00,36.0,35.0,-100.00,NE,37,0.0,1.0,96,-99.99,,,-99.99,,2013-01-25 06:52:00,
2013-01-24 23:01:00,36.0,35.0,-100.00,SW,220,0.0,1.0,96,-99.99,,,-99.99,,2013-01-25 07:01:00,
2013-01-24 23:11:00,36.0,35.0,-100.00,SW,220,0.0,1.0,96,-99.99,,,-99.99,,2013-01-25 07:11:00,
2013-01-24 23:21:00,36.0,35.0,-100.00,SW,220,0.0,1.0,96,-99.99,,,-99.99,,2013-01-25 07:21:00,
2013-01-24 23:42:00,36.0,35.0,-100.00,North,10,1.0,2.0,96,-99.99,,,-99.99,,2013-01-25 07:42:00,
2013-01-24 23:52:00,36.0,35.0,-100.00,North,10,1.0,2.0,96,-99.99,,,-99.99,,2013-01-25 07:52:00,